sat.trackr.live / text

‹ back to catalog

STARLINK-34044

NORAD 63846 · 2025-093L

PAYLOAD ACTIVE UNKNOWN

§ Identity

Operator
Country
US
Launch date
2025-05-07
Launch site
AFETR
Launch vehicle
Mass (kg)
RCS (m²)

Purposes: comms

External: N2YO · Heavens-Above · Gunter

§ Orbital elements

Epoch: 2026-05-24T23:40:38.887680Z

Period
94.27 min
Inclination
43.0040°
Eccentricity
0.0001484
Mean motion
15.27592134 rev/d
Perigee alt
482.0 km
Apogee alt
484.0 km
Semi-major
6,861.1 km
B*
9.8429e-4
RAAN
6.7717°
Arg perigee
274.2016°
Mean anomaly
85.8666°
Rev number
5,942

§ Raw data

STARLINK-340441 63846U 25093L   26144.98656120  .00026932  00000+0  98429-3 0  99962 63846  43.0040   6.7717 0001484 274.2016  85.8666 15.27592134 59425

JSON: /api/v1/satellites/63846 · /tle

For live sub-satellite position, see the globe view (requires WebGL).

§ Visibility from observer

Set your observer location to see the next 7 days of passes ≥ 10°. The values pass through the URL so the page stays shareable.

No JS? Fill the form by hand. The geolocation button needs JavaScript.